Regional Weather Roundup
Issued by NWS Pendleton, OR

Home | Current Version | Previous Version | Text Only | Print | Product List | Glossary On
Versions: 1 2 3 4 5 6 7 8 9 10 11 12 13 14 15 16 17 18 19 20 21 22 23 24 25 26 27 28 29 30 31 32 33 34 35 36 37 38 39 40 41 42 43 44 45 46 47 48 49 50
000
ASUS46 KPDT 230510
RWRPDT
PENDLETON REGIONAL WEATHER ROUNDUP
NATIONAL WEATHER SERVICE PENDLETON OREGON
1000 PM PDT WED OCT 22 2014

NOTE: FAIR INDICATES FEW OR NO CLOUDS BELOW 12,000 FEET WITH NO
SIGNIFICANT WEATHER AND/OR OBSTRUCTIONS TO VISIBILITY.

# INDICATES UNOFFICIAL STATION AND DATA

WAZ520-230610-
EAST SLOPES OF WASHINGTON CASCADES

CITY            SKY/WX      TMP DP  RH  WIND    PRES   REMARKS
#BUMPING DAM    N/A         45  N/A N/A S7      N/A
#CLE ELUM HS    N/A         49  48  96  CALM    29.63F
#CLE ELUM 2NW   N/A         49  48  96  SW1     N/A
#CLE ELUM LAKE  N/A         N/A N/A N/A W13     29.64S
#CLIFFDEL 2NW   N/A         47  47  100 NE3     N/A
#EASTON DOT     N/A         47  42  83  S10G25  N/A
#GLENWOOD       N/A         51  50  96  S2      29.72S
#MANASTASH CYN  N/A         45  42  89  CALM    29.67R
#NELSON         N/A         48  47  96  CALM    29.67F
#NELSON 3SW     N/A         46  45  96  CALM    29.85F
#NILE           N/A         47  46  96  CALM    28.93R
#PEOH POINT     N/A         44  44  100 S1      N/A
#RONALD 2NW     N/A         48  46  93  CALM    29.55S
#SNOWDEN        N/A         50  46  86  CALM    N/A
#TEANAWAY 4NE   N/A         50  50  100 CALM    N/A
#TROUT LAKE HS  N/A         52  52  100 CALM    N/A
#TROUT LAKE 1NE N/A         51  49  93  W3      29.72S
$$

WAZ521-230610-
SIMCOE HIGHLANDS

CITY            SKY/WX      TMP DP  RH  WIND    PRES   REMARKS
#BICKLETON HS   N/A         50  45  83  W7      29.82S
#SATUS PASS DOT N/A         49  47  93  N1      N/A
#CENTERVILLE 4W N/A         53  50  89  N1      29.51R
#CENTERVILLE 1SWN/A         52  49  89  CALM    29.69S
#GOLDENDALE     N/A         54  53  96  N1      N/A
#GOLDENDALE 1NE N/A         54  54  100 CALM    N/A
#GOLDENDALE 1S  N/A         53  51  93  CALM    29.73R
#GOLDENDALE 5WNWN/A         53  51  93  CALM    29.71R
#GOODNOE HILLS  N/A         57  53  86  W8      29.67R
#LYLE 6NE       N/A         52  51  96  CALM    29.71R
$$

WAZ026-230610-
KITTITAS VALLEY

CITY            SKY/WX      TMP DP  RH  WIND    PRES   REMARKS
ELLENSBURG AP   CLOUDY      56  48  74  SE7     29.66S
#ELLENSBURG CWU N/A         55  50  83  SE8     29.60S
#ELLENSBURG 3NE N/A         53  50  89  CALM    29.68F
#ELLENSBURG     N/A         58  53  83  S5      N/A
#KITTITAS 3S    N/A         53  50  89  CALM    29.62F
#THORP 6N       N/A         50  48  93  E7      29.66S
$$

WAZ027-230610-
YAKIMA VALLEY

CITY            SKY/WX      TMP DP  RH  WIND    PRES   REMARKS
SUNNYSIDE AP    CLOUDY      55  52  90  CALM    29.69F
YAKIMA AIRPORT  CLOUDY      60  48  64  S23G29  29.68R
YAKIMA-VAGABOND MOCLDY      58  48  69  S23G39  29.66F
#COWICHE 1N     N/A         53  47  80  SE3     29.82S
#DONALD 2NE     N/A         59  48  67  NE3     30.03R
#GRANDVIEW      N/A         57  51  80  CALM    29.70F
#MABTON         N/A         60  52  75  CALM    29.69S
#MOXEE 2E       N/A         59  40  49  S8      29.65R
#NACHES 2SW     N/A         51  49  93  CALM    29.66S
#TERRACE HTS    N/A         57  49  75  S5      29.65R
#TOPPENISH      N/A         62  50  65  W6      29.60F
#WAPATO 4NE     N/A         59  48  67  NE3     30.03R
#WEST VALLEY    N/A         57  49  75  S7      29.65R
#W YAKIMA       N/A         57  50  77  S5      29.67R
#WHITE SWAN 5E  N/A         60  50  69  SE7     29.68R
#WILEY CITY 3W  N/A         54  40  59  SW7     29.96S
$$

WAZ028-230610-
LOWER COLUMBIA BASIN...WASHINGTON

CITY            SKY/WX      TMP DP  RH  WIND    PRES   REMARKS
PASCO           CLOUDY      63  50  62  S10     29.71R
PROSSER AWOS    N/A         59  52  78  E3      29.72S
RICHLAND AWOS   CLOUDY      64  50  60  SW3     29.70R
#BASIN CITY 5SW N/A         59  51  75  CALM    29.70R
#BENTON CITY    N/A         62  50  65  W3      29.60R
#CONNELL 5N     N/A         57  48  72  S5      29.70R
#CONNELL 5NW    N/A         58  49  72  S9      29.66R
#ELTOPIA        N/A         60  51  72  E1      29.67R
#ELTOPIA 6NW    N/A         58  49  72  S7      28.68R
#KENNEWICK 3S   N/A         62  51  67  SW5     29.70R
#PASCO-BROADMOORN/A         61  52  72  SE1     29.58R
#PATERSON       N/A         63  51  65  CALM    29.68R
#PROSSER DOT    N/A         60  51  72  CALM    N/A
#PROSSER        N/A         61  47  60  S2      29.69S
#SAGEMOOR 2W    N/A         58  51  77  SE6     29.55R
#TOUCHET 2S     N/A         61  48  62  SE10    29.69R
#WEST PASCO     N/A         62  52  70  CALM    29.67R
$$

WAZ029-230610-
FOOTHILLS OF THE BLUES...WASHINGTON

CITY            SKY/WX      TMP DP  RH  WIND    PRES   REMARKS
WALLA WALLA AP  CLOUDY      66  42  42  S23G35  29.73F
#LOWDEN 2SE     N/A         64  47  54  SE13    29.68S
#PLEASANT VIEW 1N/A         58  45  62  SE18G26 29.73F
#PRESCOTT       N/A         66  46  48  SW7     29.70F
#SUDBURY        N/A         66  N/A N/A S6      N/A
#WHITMAN COLLEGEN/A         66  44  45  S9G24   29.75F
#WAITSBURG 8N   N/A         61  31  32  S25     29.68S
#WALLA WALLA 5E N/A         65  41  41  CALM    N/A
#WALLA WALLA U  N/A         65  46  50  CALM    29.70F
#WHITMAN MISSIONN/A         65  46  50  S6      29.72S
$$

WAZ030-230610-
BLUE MOUNTAINS...WASHINGTON

CITY            SKY/WX      TMP DP  RH  WIND    PRES   REMARKS
$$

ORZ009-041-WAZ024-230610-
COLUMBIA RIVER GORGE

CITY            SKY/WX      TMP DP  RH  WIND    PRES   REMARKS
HOOD RIVER AP   RAIN        54  54  100 CALM    29.75R
THE DALLES AP   LGT RAIN    57  54  90  NW8     29.73R
#ARLINGTON AIRPON/A         58  53  83  W9      29.98S
#ARLINGTON HS   N/A         60  53  78  N2      29.61R
#CELILO DOT     N/A         57  54  90  S2      N/A
#LYLE           N/A         56  55  96  N1      29.74S
#MARYHILL       N/A         55  53  93  S5      N/A
#MARYHILL 2W    N/A         56  56  100 E2      N/A
#MOSIER 1S      N/A         54  52  93  CALM    N/A
#MURDOCK        N/A         58  56  93  NW13    29.75R
#RUFUS DOT      N/A         58  55  90  SW16G28 N/A

$$

ORZ510-230610-
NORTH CENTRAL OREGON

CITY            SKY/WX      TMP DP  RH  WIND    PRES   REMARKS
#CHENOWITH 1W   N/A         52  50  93  W18     N/A
#COW CYN RST AREN/A         57  43  59  S12G30  N/A
#DUFUR 9E       N/A         52  49  89  NW2     29.75S
#GRASS VALLEY   N/A         56  48  74  S1      N/A
#GRASS VALLEY 1SN/A         56  47  72  SW9     29.72
#KENT DOT       N/A         55  40  57  S12     N/A
#MAUPIN SCHOOL  N/A         64  49  58  SW1     28.61R
#MORO SCHOOL    N/A         55  53  93  CALM    29.77R
#SHANIKO 5WSW   N/A         55  37  51  S30     N/A
#SHANIKO 4NW    N/A         52  44  74  SW8G29  29.75F
#TYGH VALLEY 2NEN/A         58  50  75  CALM    29.70S
#WAPANITIA AIRPON/A         59  49  69  N5      29.73R
#WASCO DOT      N/A         54  51  90  SW1     N/A
#WASCO 5NE      N/A         53  50  89  SW5     29.72S
$$

ORZ511-230610-
CENTRAL OREGON

CITY            SKY/WX      TMP DP  RH  WIND    PRES   REMARKS
BEND AIRPORT    CLOUDY      54  45  71  S10     29.83R
MADRAS AIRPORT  CLOUDY      59  45  60  S21G30  29.77S
PRINEVILLE AP   CLOUDY      59  43  55  S13     29.84R
REDMOND AIRPORT MOCLDY      56  43  62  S8      29.81S
#BEND 6E        N/A         55  42  61  CALM    29.70R
#BEND 1SW       N/A         49  46  89  SW7     N/A
#BEND-KIM LN    N/A         51  46  83  SW7     29.77S
#CROOKED RVR RANN/A         57  47  69  S3      29.72F
#CULVER         N/A         57  45  64  SE14    29.74S
#LAKE BILLY CHINN/A         57  31  37  S1      29.84R
#POWELL BUTTE 3EN/A         58  41  53  S9      N/A
#POWELL BUTTE   N/A         57  42  57  W13     29.48S
#PRINEVILLE 3N  N/A         59  44  57  SE7     29.73S
#WARM SPRINGS   N/A         60  49  67  CALM    29.72F


ORZ509-230610-
EAST SLOPES OF OREGON CASCADES

CITY            SKY/WX      TMP DP  RH  WIND    PRES   REMARKS
#CAMP SHERMAN   N/A         50  48  93  CALM    29.71F
#LA PINE DOT    N/A         49  43  80  S6      N/A
#LA PINE 4NW    N/A         46  43  89  CALM    29.86F
#LAVA BUTTE DOT N/A         49  42  77  SE6     N/A
#SISTERS AIRPOR N/A         53  50  89  CALM    29.91S
#SISTERS ODOT   N/A         52  N/A N/A CALM    N/A
#SISTERS 3N     N/A         51  45  80  CALM    29.83R
#SUNRIVER       N/A         48  46  93  SW1     29.70S
#SUNRIVER AP    N/A         48  45  89  SW3     29.78S
#SUTTLE LK DOT  N/A         44  44  100 W30G48  N/A    WCI 34
#TUMALO 3W      N/A         51  46  83  N2      29.65R
#WANOGA BUTTE D N/A         41  42  100 W14     N/A    WCI 33

$$

ORZ044-230610-
LOWER COLUMBIA BASIN...OREGON

CITY            SKY/WX      TMP DP  RH  WIND    PRES   REMARKS
HERMISTON       CLOUDY      63  49  60  CALM    29.71R
#BOARDMAN SCHOOLN/A         65  51  60  CALM    29.71R
#BOARDMAN 3W    N/A         57  55  93  W3      29.41R
#BOARDMAN 8SW   N/A         58  54  87  CALM    29.71R
#ECHO 8SW       N/A         65  46  50  W7      29.68R
#IONE SCHOOL    N/A         69  44  40  SW14G26 29.72R
#IRRIGON 4NW    N/A         59  55  87  CALM    N/A
#UMATILLA SCHOOLN/A         59  57  93  SW2     29.75R
#UMATILLA       N/A         61  51  70  SE1     29.68R
$$

ORZ507-230610-
NORTHERN FOOTHILLS OF THE BLUES

CITY            SKY/WX      TMP DP  RH  WIND    PRES   REMARKS
PENDLETON AIRPT CLOUDY      64  43  46  S18G30  29.73S
#ADAMS 3WNW     N/A         53  51  93  CALM    29.72F
#ATHENA         N/A         58  45  62  W7      29.74S
#CAYUSE         N/A         65  45  48  S31G53  29.68S
#HELIX SCHOOL   N/A         56  47  72  S15G25  29.73S
#HELIX 3N       N/A         55  45  69  SE22G29 29.73S
#HELIX 6SW      N/A         59  48  67  SE14    29.75S
#HOLDMAN 5SE    N/A         63  48  58  S3      29.75R
#HOLDMAN 6E     N/A         58  47  67  N13     29.53S
#M-F FERNDALE   N/A         64  44  48  SE1     29.74S
#M-F GROVE ELEM N/A         62  43  50  E7      29.73F
#M-FREEWATER 5SEN/A         60  45  58  SE14G28 29.77F
#PENDLETON DNTN N/A         67  40  37  SW10    28.55S
#PDT AQUATIC CTRN/A         68  43  40  S15G26  29.73S
#PDT SUNRIDGE   N/A         67  44  43  S13     29.74F
#PENDLETON 7NW  N/A         64  47  54  S14     27.04F
#PILOT ROCK     N/A         65  39  38  SE16G31 29.76F
#TUTUILLA       N/A         63  43  48  S7G25   29.73F
#UMAPINE 2E     N/A         63  48  58  SE16    29.70S
#WESTON SCHOOL  N/A         60  41  49  SW15G28 29.72F

$$

ORZ508-230610-
SOUTHERN FOOTHILLS OF THE BLUES

CITY            SKY/WX      TMP DP  RH  WIND    PRES   REMARKS
LEXINGTON       CLOUDY      66  43  43  S15     29.75R
#AJAX           N/A         60  42  51  S13     29.70R
#CONDON SCHOOL  N/A         60  44  55  CALM    29.75R
#CONDON 5W      N/A         56  43  62  S17G26  29.76R
#FOSSIL SCHOOL  N/A         62  41  46  SW7     29.76R
#HEPPNER EOC    N/A         64  41  43  S7      29.66R
#HEPPNER 4NE    N/A         61  41  48  S8G25   29.71R
#LEXINGTON 2SE  N/A         68  43  40  S12G24  29.70R
#MIKKALO        N/A         60  46  60  S2      29.73R
#OLEX 4N        N/A         57  51  80  W1      29.72R
#RUGGS 5NE      N/A         60  39  46  S10G25  29.94R
#RUGGS 2SW      N/A         61  42  50  S9G24   29.73R

$$

ORZ502-503-230610-
BLUE MOUNTAINS

CITY            SKY/WX      TMP DP  RH  WIND    PRES   REMARKS
MEACHAM         CLOUDY      53  39  59  VRB3    29.85F
#BATTLE MTN DOT N/A         50  44  80  S13     N/A
#HARDMAN 10S    N/A         52  41  66  S7      29.90S
#HEPPNER 15SE   N/A         54  40  59  E13     29.72R
#LADD CYN SMT   N/A         51  33  50  SE6     N/A
#LADD CREEK ODOTN/A         52  39  61  SW12    N/A
#N POWDER DOT   N/A         50  41  71  SE16    N/A
#PIKES PEAK     N/A         55  40  57  S45G58  27.99S
#TROY SCHOOL    N/A         54  43  66  CALM    29.68R
#UKIAH          N/A         50  48  93  SW1     29.85F
#WESTON 4E      N/A         51  43  74  E14G25  29.70F
$$

ORZ505-230610-
JOHN DAY BASIN

CITY            SKY/WX      TMP DP  RH  WIND    PRES   REMARKS
JOHN DAY        RAIN        58  38  47  S15G30  29.90R
#JOHN DAY KJDY  N/A         59  41  51  S5      30.03R
#DAYVILLE SCHOOLN/A         62  38  41  E3      29.82S
#MT. VERNON 5SE N/A         52  41  66  CALM    29.85F
#WINLOCK        N/A         58  40  51  N7      29.90S
$$

ORZ506-230610-
OCHOCO AND JOHN DAY HIGHLANDS

CITY            SKY/WX      TMP DP  RH  WIND    PRES   REMARKS
#BUCK CREEK DOT N/A         56  46  69  S23     N/A
#HORSE RIDGE DO N/A         53  41  64  S17G30  N/A
#KEYES SMT DOT  N/A         54  38  55  SE7     N/A
#PAULINA SCHOOL N/A         N/A N/A N/A SW17G26 29.88S
#PINE MTN OBS   N/A         43  38  82  SE31G48 N/A    WCI 32
#PRAIRIE CITY   N/A         51  39  63  E2      29.91S
#SENECA         N/A         51  N/A N/A SE6     N/A
#SENECA 9NW     N/A         46  41  83  CALM    29.92F
$$

ORZ049-230610-
GRANDE RONDE VALLEY

CITY            SKY/WX      TMP DP  RH  WIND    PRES   REMARKS
LA GRANDE       CLOUDY      57  34  42  S10     29.88R
#COVE           N/A         58  42  55  E7      29.79S
#COVE SCHOOL    N/A         58  40  51  E15     29.86R
#COVE 6NW       N/A         58  37  45  S7G26   29.90S
#ELGIN 3N       N/A         53  40  61  S6      29.61R
#ELGIN 1E       N/A         54  42  64  CALM    N/A
#IMBLER SCHOOL  N/A         63  35  35  SW3     29.84S
#ISLAND CITY 4N N/A         55  54  96  CALM    29.72S
#LADD CYN DOT   N/A         55  38  53  S23G33  N/A
#UNION 1S       N/A         58  39  49  SE14G24 29.78R
$$

ORZ050-230610-
WALLOWA COUNTY

CITY            SKY/WX      TMP DP  RH  WIND    PRES   REMARKS
#ENTERPRISE HS  N/A         56  39  53  S5      29.90R
#IMNAHA SCHOOL  N/A         63  32  31  S14G28  29.81S
#IMNAHA 10S     N/A         58  36  44  SW6     29.90S
#JOSEPH 3N      N/A         53  40  61  SE14G24 29.91R
#JOSEPH 3W      N/A         50  39  66  SE3     29.75S
#LOSTINE        N/A         54  42  64  S7      29.69R
#MT HOWARD 8000 N/A         35  32  89  SW21G41 29.93R WCI 24
#PROMISE 1S     N/A         53  40  61  CALM    29.93S
#SHEEP RDG 7000 N/A         38  33  82  CALM    29.84S
#WALLOWA SCHOOL N/A         59  41  51  CALM    30.81S



$$



USA.gov is the U.S. government's official web portal to all federal, state and local government web resources and services.